Hourly Weather Chanab

Today, 19 June, Saturday

Time Temperature Precipitation Wind Pressure Humidity
00:00 +9°C° 0 mm 3 mps 576 mmHg 75%
01:00 +9°C° 0 mm 3 mps 576 mmHg 72%
02:00 +9°C° 0 mm 3 mps 576 mmHg 68%
03:00 +9°C° 0 mm 3 mps 576 mmHg 66%
04:00 +10°C° 0 mm 2 mps 576 mmHg 66%
05:00 +13°C° 0 mm 2 mps 577 mmHg 65%
06:00 +14°C° 0 mm 2 mps 578 mmHg 64%
07:00 +15°C° 0 mm 2 mps 578 mmHg 58%
08:00 +17°C° 0 mm 2 mps 579 mmHg 51%
09:00 +19°C° 0 mm 1 mps 579 mmHg 44%
10:00 +19°C° 0 mm 2 mps 579 mmHg 44%
11:00 +20°C° 0 mm 2 mps 579 mmHg 43%
12:00 +21°C° 0 mm 2 mps 580 mmHg 43%
13:00 +21°C° 0 mm 2 mps 579 mmHg 44%
14:00 +21°C° 0 mm 2 mps 579 mmHg 46%
15:00 +21°C° 0 mm 2 mps 579 mmHg 47%
16:00 +20°C° 0 mm 2 mps 579 mmHg 52%
17:00 +19°C° 0 mm 2 mps 579 mmHg 57%
18:00 +18°C° 0 mm 2 mps 578 mmHg 62%
19:00 +16°C° 0 mm 3 mps 578 mmHg 60%
20:00 +13°C° 0 mm 3 mps 578 mmHg 59%
21:00 +12°C° 0 mm 4 mps 577 mmHg 57%
22:00 +11°C° 0 mm 4 mps 577 mmHg 55%
23:00 +11°C° 0 mm 4 mps 577 mmHg 53%

Tomorrow, 20 June, Sunday

Time Temperature Precipitation Wind Pressure Humidity
00:00 +11°C° 0 mm 4 mps 577 mmHg 51%
01:00 +11°C° 0 mm 4 mps 577 mmHg 47%
02:00 +11°C° 0 mm 4 mps 576 mmHg 43%
03:00 +11°C° 0 mm 4 mps 576 mmHg 38%
04:00 +12°C° 0 mm 4 mps 577 mmHg 42%
05:00 +12°C° 0 mm 4 mps 577 mmHg 45%
06:00 +13°C° 0 mm 4 mps 577 mmHg 48%
07:00 +16°C° 0 mm 3 mps 578 mmHg 45%
08:00 +18°C° 0 mm 3 mps 578 mmHg 42%
09:00 +20°C° 0 mm 2 mps 579 mmHg 38%
10:00 +21°C° 0 mm 2 mps 579 mmHg 37%
11:00 +23°C° 0 mm 2 mps 580 mmHg 37%
12:00 +24°C° 0 mm 3 mps 580 mmHg 36%
13:00 +22°C° 0 mm 3 mps 580 mmHg 38%
14:00 +22°C° 0 mm 3 mps 580 mmHg 39%
15:00 +22°C° 0 mm 3 mps 580 mmHg 40%
16:00 +21°C° 0 mm 3 mps 579 mmHg 46%
17:00 +20°C° 0 mm 2 mps 579 mmHg 51%
18:00 +19°C° 0 mm 2 mps 579 mmHg 57%
19:00 +17°C° 0 mm 3 mps 578 mmHg 56%
20:00 +14°C° 0 mm 3 mps 578 mmHg 56%
21:00 +12°C° 0 mm 4 mps 577 mmHg 55%
22:00 +12°C° 0 mm 4 mps 577 mmHg 54%
23:00 +12°C° 0 mm 4 mps 577 mmHg 54%

Day after tomorrow, 21 June, Monday

Time Temperature Precipitation Wind Pressure Humidity
00:00 +11°C° 0 mm 4 mps 577 mmHg 53%
01:00 +11°C° 0 mm 4 mps 576 mmHg 51%
02:00 +11°C° 0 mm 4 mps 576 mmHg 49%
03:00 +11°C° 0 mm 4 mps 576 mmHg 47%
04:00 +12°C° 0 mm 4 mps 577 mmHg 48%
05:00 +13°C° 0 mm 4 mps 577 mmHg 50%
06:00 +14°C° 0 mm 3 mps 577 mmHg 51%
07:00 +17°C° 0 mm 3 mps 578 mmHg 46%
08:00 +19°C° 0 mm 2 mps 579 mmHg 41%
09:00 +21°C° 0 mm 2 mps 579 mmHg 36%
10:00 +23°C° 0 mm 2 mps 579 mmHg 37%
11:00 +23°C° 0 mm 2 mps 580 mmHg 38%
12:00 +24°C° 0 mm 2 mps 580 mmHg 39%
13:00 +24°C° 0 mm 2 mps 580 mmHg 40%
14:00 +24°C° 0 mm 2 mps 580 mmHg 41%
15:00 +24°C° 0 mm 2 mps 580 mmHg 42%
16:00 +21°C° 0 mm 2 mps 579 mmHg 46%
17:00 +20°C° 0 mm 2 mps 579 mmHg 50%
18:00 +19°C° 0 mm 2 mps 578 mmHg 55%
19:00 +17°C° 0 mm 3 mps 578 mmHg 52%
20:00 +14°C° 0 mm 3 mps 577 mmHg 49%
21:00 +12°C° 0 mm 4 mps 577 mmHg 47%
22:00 +12°C° 0 mm 4 mps 577 mmHg 44%
23:00 +12°C° 0 mm 4 mps 576 mmHg 40%

22 June, Tuesday

Time Temperature Precipitation Wind Pressure Humidity
00:00 +12°C° 0 mm 4 mps 576 mmHg 37%
01:00 +12°C° 0 mm 4 mps 576 mmHg 37%
02:00 +12°C° 0 mm 4 mps 576 mmHg 37%
03:00 +12°C° 0 mm 4 mps 576 mmHg 36%
04:00 +13°C° 0 mm 3 mps 577 mmHg 40%
05:00 +14°C° 0 mm 3 mps 577 mmHg 43%
06:00 +16°C° 0 mm 3 mps 577 mmHg 47%
07:00 +18°C° 0 mm 3 mps 578 mmHg 43%
08:00 +20°C° 0 mm 2 mps 579 mmHg 39%
09:00 +23°C° 0 mm 2 mps 579 mmHg 35%
10:00 +24°C° 0 mm 2 mps 580 mmHg 36%
11:00 +24°C° 0 mm 2 mps 580 mmHg 37%
12:00 +25°C° 0 mm 2 mps 580 mmHg 37%
13:00 +25°C° 0 mm 2 mps 580 mmHg 39%
14:00 +24°C° 0 mm 2 mps 580 mmHg 40%
15:00 +24°C° 0 mm 2 mps 580 mmHg 42%
16:00 +23°C° 0 mm 2 mps 580 mmHg 47%
17:00 +21°C° 0 mm 2 mps 580 mmHg 51%
18:00 +20°C° 0 mm 2 mps 579 mmHg 56%
19:00 +18°C° 0 mm 2 mps 579 mmHg 54%
20:00 +16°C° 0 mm 3 mps 578 mmHg 52%
21:00 +13°C° 0 mm 4 mps 578 mmHg 50%
22:00 +13°C° 0 mm 4 mps 578 mmHg 46%
23:00 +13°C° 0 mm 4 mps 577 mmHg 43%

23 June, Wednesday

Time Temperature Precipitation Wind Pressure Humidity
00:00 +13°C° 0 mm 3 mps 577 mmHg 39%
01:00 +13°C° 0 mm 4 mps 577 mmHg 38%
02:00 +13°C° 0 mm 4 mps 577 mmHg 37%
03:00 +12°C° 0 mm 4 mps 577 mmHg 36%
04:00 +13°C° 0 mm 4 mps 577 mmHg 39%
05:00 +14°C° 0 mm 4 mps 578 mmHg 42%
06:00 +16°C° 0 mm 3 mps 578 mmHg 45%
07:00 +18°C° 0 mm 3 mps 579 mmHg 41%
08:00 +20°C° 0 mm 3 mps 579 mmHg 38%
09:00 +23°C° 0 mm 2 mps 580 mmHg 34%
10:00 +24°C° 0 mm 2 mps 580 mmHg 34%
11:00 +24°C° 0 mm 2 mps 580 mmHg 35%
12:00 +25°C° 0 mm 2 mps 581 mmHg 36%
13:00 +25°C° 0 mm 2 mps 581 mmHg 37%
14:00 +25°C° 0 mm 2 mps 580 mmHg 38%
15:00 +25°C° 0 mm 2 mps 580 mmHg 39%
16:00 +24°C° 0 mm 2 mps 580 mmHg 44%
17:00 +21°C° 0 mm 2 mps 580 mmHg 48%
18:00 +20°C° 0 mm 2 mps 580 mmHg 53%
19:00 +18°C° 0 mm 3 mps 579 mmHg 50%
20:00 +15°C° 0 mm 4 mps 579 mmHg 46%
21:00 +13°C° 0 mm 4 mps 578 mmHg 43%
22:00 +13°C° 0 mm 4 mps 578 mmHg 41%
23:00 +13°C° 0 mm 3 mps 578 mmHg 39%

24 June, Thursday

Time Temperature Precipitation Wind Pressure Humidity
00:00 +13°C° 0 mm 3 mps 577 mmHg 37%
01:00 +13°C° 0 mm 3 mps 577 mmHg 37%
02:00 +14°C° 0 mm 2 mps 577 mmHg 36%
03:00 +14°C° 0 mm 2 mps 577 mmHg 36%
04:00 +15°C° 0 mm 2 mps 578 mmHg 40%
05:00 +16°C° 0 mm 2 mps 578 mmHg 43%
06:00 +17°C° 0 mm 2 mps 579 mmHg 47%
07:00 +18°C° 0 mm 2 mps 579 mmHg 45%
08:00 +20°C° 0 mm 2 mps 580 mmHg 42%
09:00 +22°C° 0 mm 1 mps 580 mmHg 40%
10:00 +23°C° 0 mm 2 mps 581 mmHg 40%
11:00 +24°C° 0 mm 2 mps 581 mmHg 41%
12:00 +24°C° 0 mm 2 mps 581 mmHg 41%
13:00 +24°C° 0 mm 2 mps 581 mmHg 42%
14:00 +24°C° 0 mm 2 mps 581 mmHg 43%
15:00 +24°C° 0 mm 2 mps 581 mmHg 44%
16:00 +23°C° 0 mm 2 mps 581 mmHg 48%
17:00 +21°C° 0 mm 2 mps 580 mmHg 51%
18:00 +20°C° 0 mm 2 mps 580 mmHg 55%
19:00 +18°C° 0 mm 2 mps 579 mmHg 55%
20:00 +16°C° 0 mm 2 mps 579 mmHg 55%
21:00 +13°C° 0 mm 3 mps 578 mmHg 55%
22:00 +13°C° 0 mm 3 mps 578 mmHg 53%
23:00 +12°C° 0 mm 3 mps 578 mmHg 50%
Show more

We Need Your Consent

Meteoprog and our Service Providers may store and access personal data such as cookies, device identifiers or other similar technologies on your device and process such data to personalise content and ads, as well as provide social media features and to analyse the traffic.

  • Store and/or access information on your device

    Cookies, device identifiers or other information can be stored or accessed on your device for the purposes indicated above.

  • Personalised ads and content, ad and content measurement, audience insights, and products development

    Ads and content can be personalised based on a profile. More data can be added to better personalise ads and content. Ad and content performance can be measured. Insights about the audience who saw the ads and content can be derived. Such data can be used to develop or improve user’s experience, systems and software.

By clicking ‘I Agree’ you will allow the use of indicated cookies, device identifiers, web beacons or other similar technologies. Your settings can be changed in the browser on your device.

For certain purposes, legitimate interests may be relied on, rather than consent. You can read more about this in our Privacy and Cookie Policy.